User: anonymous   Login
Location: Unspecified
(0.0000°N, 0.0000°E)
Time: 08:47:37
(UTC+00:00)
Language:

PROBA 2 - Orbit

View from above orbital plane
View from above orbital plane
View from above satellite
View from above satellite

Ground track
Ground track

The orbit data is extracted from the following two-line orbital elements,

1 36037U 09059B   16040.52167934  .00000139  00000-0  44634-4 0  9998
2 36037  98.2666 235.3410 0014270  58.9925 301.2670 14.52924963332448
Epoch (UTC): 09 February 2016 12:31:13
Eccentricity: 0.0014270
inclination: 98.2666°
perigee height: 706 km
apogee height: 726 km
right ascension of ascending node: 235.3410°
argument of perigee: 58.9925°
revolutions per day: 14.52924963
mean anomaly at epoch: 301.2670°
orbit number at epoch: 33244

The dashed part of the orbit path shows where the satellite is in the earth's shadow,  

DLR